Sioux City, IA

7:41 PM CDT on August 17, 2017 (GMT -0500)
Sioux Gateway

Weather History for KSUX - May, 2013

Change the Weather History Date:

Thursday, May 9, 2013

  Actual Average Record
Temperature  
Mean Temperature 57 °F 59 °F  
Max Temperature 63 °F 71 °F 95 °F (2011)
Min Temperature 51 °F 46 °F 30 °F (2010)
Degree Days  
Heating Degree Days 8 7  
Month to date heating degree days 146 78  
Since 1 July heating degree days 6974 6730  
Cooling Degree Days 0 1  
Month to date cooling degree days 0 9  
Year to date cooling degree days 1 20  
Growing Degree Days 7 (Base 50)    
Moisture  
Dew Point 54 °F    
Average Humidity 89    
Maximum Humidity 100    
Minimum Humidity 78    
Precipitation  
Precipitation T in 0.12 in 2.58 in (1903)
Month to date precipitation 2.09 1.03  
Year to date precipitation 10.14 7.27  
Snow  
Snow 0.00 in 0.00 in 4.00 in (1945)
Month to date snowfall 1.4 0.1  
Since 1 July snowfall 45.1 34.9  
Snow Depth 0.00 in    
Sea Level Pressure  
Sea Level Pressure 29.95 in    
Wind  
Wind Speed 10 mph (North)    
Max Wind Speed 23 mph    
Max Gust Speed 30 mph    
Visibility 5 miles    
Events Fog    
T = Trace of Precipitation, MM = Missing Value Source: NWS Daily Summary

Daily Weather History Graph

Daily Weather History Graph

Search for Another Location

Airport or City:

Trip Planner

Search our weather history database for the weather conditions in past years. The results will help you decide how hot, cold, wet, or windy it might be!

Date:

Astronomy

May. 09, 2013 Rise Set
Actual Time 6:10 AM CDT 8:34 PM CDT
Civil Twilight 5:38 AM CDT 9:06 PM CDT
Nautical Twilight 4:59 AM CDT 9:45 PM CDT
Astronomical Twilight 4:15 AM CDT 10:29 PM CDT
Moon 5:56 AM CDT (5/9) 8:30 PM CDT (5/9)
Length of Visible Light 15h 27m
Length of Day
14h 24m
Waning Crescent, 0% of the Moon is Illuminated
May 9
Waning Crescent
May 9
New
May 17
First Quarter
May 24
Full
May 31
Last Quarter

Hourly Weather History & Observations

Time (CDT) Temp. Dew Point Humidity Pressure Visibility Wind Dir Wind Speed Gust Speed Precip Events Conditions
12:05 AM 55.4 °F 55.4 °F 100% 29.94 in 1.8 mi Calm Calm - N/A   Overcast
12:24 AM 53.6 °F 53.6 °F 100% 29.94 in 3.0 mi ESE 3.5 mph - N/A   Mostly Cloudy
12:39 AM 53.6 °F 51.8 °F 94% 29.94 in 1.8 mi Calm Calm - N/A   Mostly Cloudy
12:52 AM 52.0 °F 52.0 °F 100% 29.94 in 0.5 mi Calm Calm - N/A Fog Fog
1:09 AM 53.6 °F 51.8 °F 94% 29.94 in 0.2 mi NNE 4.6 mph - N/A Fog Fog
1:15 AM 53.6 °F 53.6 °F 100% 29.94 in 1.0 mi NE 5.8 mph - N/A   Mostly Cloudy
1:18 AM 55.4 °F 53.6 °F 94% 29.94 in 4.0 mi NE 4.6 mph - N/A   Mostly Cloudy
1:52 AM 54.0 °F 54.0 °F 100% 29.93 in 5.0 mi NNE 6.9 mph - N/A   Scattered Clouds
2:47 AM 53.6 °F 51.8 °F 94% 29.92 in 1.5 mi NW 5.8 mph - N/A   Clear
2:52 AM 52.0 °F 52.0 °F 100% 29.92 in 1.0 mi NNW 4.6 mph - N/A   Clear
2:59 AM 51.8 °F 51.8 °F 100% 29.92 in 0.5 mi NNW 4.6 mph - N/A Fog Fog
3:14 AM 51.8 °F 51.8 °F 100% 29.91 in 0.2 mi NNW 4.6 mph - N/A Fog Fog
3:43 AM 53.6 °F 53.6 °F 100% 29.92 in 0.2 mi North 3.5 mph - N/A Fog Fog
3:52 AM 53.1 °F 53.1 °F 100% 29.91 in 0.2 mi NNW 4.6 mph - N/A Fog Fog
4:24 AM 53.6 °F 53.6 °F 100% 29.91 in 0.2 mi North 9.2 mph - N/A Fog Fog
4:52 AM 54.0 °F 54.0 °F 100% 29.90 in 0.5 mi North 12.7 mph - N/A Fog Fog
5:06 AM 53.6 °F 53.6 °F 100% 29.90 in 1.2 mi North 8.1 mph - N/A   Overcast
5:52 AM 55.0 °F 55.0 °F 100% 29.92 in 2.5 mi NNE 4.6 mph - N/A   Overcast
6:01 AM 55.4 °F 55.4 °F 100% 29.92 in 3.0 mi Calm Calm - N/A   Overcast
6:17 AM 53.6 °F 53.6 °F 100% 29.92 in 1.8 mi Calm Calm - N/A   Overcast
6:32 AM 53.6 °F 53.6 °F 100% 29.93 in 1.0 mi Calm Calm - N/A   Overcast
6:35 AM 53.6 °F 53.6 °F 100% 29.93 in 0.8 mi Calm Calm - N/A   Overcast
6:52 AM 55.0 °F 55.0 °F 100% 29.93 in 1.2 mi NW 4.6 mph - N/A   Overcast
7:10 AM 55.4 °F 55.4 °F 100% 29.93 in 2.0 mi NNW 8.1 mph - N/A   Overcast
7:27 AM 55.4 °F 55.4 °F 100% 29.94 in 2.5 mi North 5.8 mph - N/A   Overcast
7:52 AM 57.0 °F 55.9 °F 96% 29.94 in 2.5 mi NNW 6.9 mph - N/A   Overcast
8:09 AM 57.2 °F 55.4 °F 94% 29.94 in 2.5 mi NNW 6.9 mph - N/A   Overcast
8:23 AM 57.2 °F 55.4 °F 94% 29.94 in 2.5 mi NNW 8.1 mph - N/A   Overcast
8:52 AM 57.0 °F 55.0 °F 93% 29.94 in 2.5 mi NNW 5.8 mph - N/A   Overcast
9:03 AM 57.2 °F 55.4 °F 94% 29.94 in 5.0 mi North 8.1 mph - N/A   Overcast
9:36 AM 57.2 °F 55.4 °F 94% 29.95 in 4.0 mi North 5.8 mph - N/A   Overcast
9:52 AM 57.9 °F 55.0 °F 90% 29.95 in 4.0 mi North 11.5 mph - N/A   Overcast
10:52 AM 59.0 °F 55.9 °F 90% 29.95 in 6.0 mi North 9.2 mph - N/A   Overcast
11:52 AM 62.1 °F 55.9 °F 80% 29.95 in 10.0 mi NNW 8.1 mph - N/A   Overcast
12:52 PM 62.1 °F 57.0 °F 84% 29.95 in 10.0 mi North 17.3 mph - N/A   Overcast
1:20 PM 60.8 °F 55.4 °F 82% 29.96 in 10.0 mi North 13.8 mph - N/A   Overcast
1:52 PM 61.0 °F 55.0 °F 81% 29.96 in 10.0 mi NNE 16.1 mph 23.0 mph N/A   Overcast
2:52 PM 62.6 °F 55.4 °F 77% 29.95 in 10.0 mi NNE 17.3 mph 24.2 mph N/A   Overcast
2:59 PM 62.6 °F 55.4 °F 77% 29.96 in 10.0 mi NNE 17.3 mph 25.3 mph N/A   Overcast
3:21 PM 60.8 °F 55.4 °F 82% 29.96 in 10.0 mi NNE 16.1 mph 25.3 mph N/A   Overcast
3:52 PM 61.0 °F 54.0 °F 78% 29.96 in 10.0 mi North 20.7 mph 29.9 mph N/A   Overcast
3:59 PM 60.8 °F 53.6 °F 77% 29.96 in 10.0 mi NNE 13.8 mph 26.5 mph N/A   Overcast
4:52 PM 60.1 °F 54.0 °F 80% 29.96 in 10.0 mi North 12.7 mph - 0.00 in   Overcast
5:44 PM 60.8 °F 53.6 °F 77% 29.97 in 10.0 mi NNE 11.5 mph - 0.00 in   Overcast
5:52 PM 60.1 °F 54.0 °F 80% 29.98 in 10.0 mi NNE 11.5 mph - 0.00 in   Overcast
6:08 PM 60.8 °F 53.6 °F 77% 29.98 in 10.0 mi North 11.5 mph - N/A   Overcast
6:42 PM 60.8 °F 53.6 °F 77% 29.98 in 10.0 mi NNE 10.4 mph - N/A   Overcast
6:52 PM 60.8 °F 53.6 °F 77% 29.98 in 10.0 mi NNE 13.8 mph - N/A   Overcast
7:52 PM 60.1 °F 53.1 °F 78% 30.00 in 10.0 mi North 12.7 mph - N/A   Clear
8:52 PM 59.0 °F 53.1 °F 81% 30.01 in 10.0 mi NNE 13.8 mph - N/A   Partly Cloudy
9:52 PM 55.9 °F 51.1 °F 84% 30.03 in 10.0 mi NNE 11.5 mph - N/A   Mostly Cloudy
10:52 PM 54.0 °F 50.0 °F 86% 30.04 in 10.0 mi NNE 5.8 mph - N/A   Clear
11:52 PM 51.8 °F 48.2 °F 88% 30.05 in 10.0 mi NNE 8.1 mph - N/A   Clear